Terminal Aerodrome Forecast
Issued by NWS

Home | Current Version | Previous Version | Text Only | Print | Product List | Glossary On
Versions: 1 2 3 4 5 6 7 8 9 10 11 12 13 14 15 16 17 18 19 20 21 22 23 24 25 26 27 28 29 30 31 32 33 34 35 36 37 38 39 40 41 42 43 44 45 46 47 48 49 50
000
FTAK31 PANC 041159 CCA
TAFASD
TAF COR
PASD 041159Z 0412/0512 32007KT P6SM SCT025
     FM042000 VRB05KT P6SM SCT030 OVC120
     FM050300 22007KT 4SM -SHSN BKN015 OVC025
     FM050800 33015KT 2SM -SN BKN008 OVC012
      AMD LTD TO CLD VIS AND WIND=

USA.gov is the U.S. government's official web portal to all federal, state and local government web resources and services.